Location: *
(47.8307°S, 178.3954°E)
Time: 07:02:13
(UTC+00:00)

Cosmos 1269 Rocket - Pass Details

Date: 12 August 2024
Orbit: 770 x 776 km, 74.1° (Epoch: 18 September)

Event Time Altitude Azimuth Distance (km) Brightness Sun altitude
Rises 18:12:22 0° 208° (SSW) 3,287 6.9 -10.6°
Reaches altitude 10° 18:14:51 10° 214° (SW) 2,353 6.1 -10.2°
Maximum altitude 18:19:54 44° 284° (WNW) 1,077 4.4 -9.4°
Drops below altitude 10° 18:24:54 10° 355° (N) 2,327 6.6 -8.6°
Sets 18:27:21 0° 1° (N) 3,247 7.4 -8.2°
